Location: Trois-Rivi�res
(46.3500°N, 72.5500°W)
Time: 07:52:09
(UTC-04:00)

ISS - Pass Details

Date: 09 October 2017
Orbit: 400 x 408 km, 51.6° (Epoch: 24 October)

Event Time Altitude Azimuth Distance (km) Brightness Sun altitude
Rises 20:33:51 0° 296° (WNW) 2,330 1.4 -24.7°
Reaches altitude 10° 20:35:57 10° 292° (WNW) 1,469 0.0 -25.0°
Enters shadow 20:37:47 30° 282° (WNW) 766 -1.9 -25.3°
